Location: Unspecified
(50.7693°N, 0.0000°E)
Time: 16:48:53
(UTC+00:00)

Transit 4A - Pass Details

Date: 27 June 2019
Orbit: 862 x 982 km, 66.8° (Epoch: 20 July)

Event Time Altitude Azimuth Distance (km) Brightness Sun altitude
Rises 11:37:58 0° 301° (WNW) 3,690 10.8 62.1°
Reaches altitude 10° 11:41:26 10° 319° (NW) 2,746 10.2 62.2°
Maximum altitude 11:45:52 19° 3° (N) 2,161 9.8 62.4°
Drops below altitude 10° 11:50:17 10° 47° (NE) 2,733 10.3 62.4°
Sets 11:53:43 0° 65° (ENE) 3,667 10.9 62.5°
